Regional Weather Roundup
Issued by NWS Sterling, VA

Home | Current Version | Previous Version | Graphics & Text | Print | Product List | Glossary On
Versions: 1 2 3 4 5 6 7 8 9 10 11 12 13 14 15 16 17 18 19 20 21 22 23 24 25 26 27 28
000
ASUS41 KLWX 302010
RWRLWX

REGIONAL WEATHER ROUNDUP
NATIONAL WEATHER SERVICE BALTIMORE MD/WASHINGTON DC
400 PM EDT THU OCT 30 2014

Note: "FAIR" indicates few or no clouds below 12,000 feet
with no significant weather and/or obstructions to visibility.
 TC=TEMPERATURE CELSIUS

 * =Non NWS site. Station does not report precipitation (e.g. rain,
    snow, etc.), thunder, or fog.

DCZ001-MDZ009-015-VAZ040>042-051-053>054-302100-
WASHINGTON METRO

CITY           SKY/WX    TMP DP  RH WIND       PRES   REMARKS
WASHINGTON NAT PTSUNNY   62  36  37 N12       30.02S
DULLES         PTSUNNY   56  36  47 NW7       30.03S
ANDREWS AFB    PTSUNNY   57  37  47 N8        30.01S
FT BELVOIR     PTSUNNY   58  35  40 NW8       30.03S
QUANTICO       PTSUNNY   61  34  36 N10       30.03F
COLLEGE PARK*  CLOUDY    59  36  41 N8        30.02S
LEESBURG*      CLOUDY    55  39  54 N10       30.04S
MANASSAS*      PTSUNNY   57  37  47 N10       30.03S
GAITHERSBURG*  CLOUDY    54  37  54 NW5       30.06S

$$

MDZ006>007-011-014-302100-
BALTIMORE METRO

CITY           SKY/WX    TMP DP  RH WIND       PRES   REMARKS
BWI AIRPORT    PTSUNNY   56  39  53 NW9       30.02R
MD SCIENCE CTR   N/A     57  36  45 MISG      30.02S
MARTIN STATE   CLOUDY    55  41  58 NW9       30.03S
ANNAPOLIS      PTSUNNY   59  39  47 NW9       30.01S
FORT MEADE*    CLOUDY    57  37  47 NW10      30.04S

$$

MDZ012-015-019>023-302100-
MARYLAND EASTERN SHORE

CITY           SKY/WX    TMP DP  RH WIND       PRES   REMARKS
OCEAN CITY     MOSUNNY   61  40  45 W7        29.98S
SALISBURY      SUNNY     64  38  38 W9        29.99S
BAY BRIDGE AP*   N/A     57  37  47 N8        30.01S
CAMBRIDGE*     SUNNY     59  36  41 NW9       30.00S
EASTON*        MOSUNNY   59  41  51 NW6       30.04F

$$

MDZ017>025-302100-
SOUTHERN MARYLAND

CITY           SKY/WX    TMP DP  RH WIND       PRES   REMARKS
PATUXENT RIVER MOSUNNY   58  40  51 NE9       30.00S
ST INIGOES     SUNNY     61  38  42 VRB3      30.00S
LEONARDTOWN*   PTSUNNY   59  37  44 NE3       30.01S

$$

MDZ003>005-302100-
NORTH CENTRAL MARYLAND

CITY           SKY/WX    TMP DP  RH WIND       PRES   REMARKS
FREDERICK*     CLOUDY    59  37  44 NW7       30.06S
HAGERSTOWN APT CLOUDY    53  37  54 NW8       30.04S
WESTMINSTER*   CLOUDY    52  37  58 N5        30.02S

$$

MDZ501>502-302100-
WESTERN MARYLAND

CITY           SKY/WX    TMP DP  RH WIND       PRES   REMARKS
OAKLAND*       CLOUDY    39  32  75 NW8       30.03F
CUMBERLAND*    CLOUDY    52  32  46 CALM      30.09S

$$

VAZ025>031-302100-
SHENANDOAH VALLEY

CITY           SKY/WX    TMP DP  RH WIND       PRES   REMARKS
WINCHESTER*    CLOUDY    54  32  43 NW7       30.05S
FRONT ROYAL*   CLOUDY    52  34  50 NW5       30.04S
LURAY*         CLOUDY    54  36  50 NW5       30.05S
NEW MARKET*    CLOUDY    51  34  52 N5        30.05S
STAUNTON*      SUNNY     53  34  47 NE9       30.05F
WAYNESBORO*    MOCLDY    52  35  52 N10       30.02S

$$

WVZ021-048>050-054>055-302100-
EASTERN WEST VIRGINIA PANHANDLE

CITY           SKY/WX    TMP DP  RH WIND       PRES   REMARKS
MARTINSBURG    CLOUDY    54  33  45 NW9       30.05S
PETERSBURG*    CLOUDY    51  30  45 CALM      30.06S

$$

VAZ036>039-050-302100-
CENTRAL FOOTHILLS

CITY           SKY/WX    TMP DP  RH WIND       PRES   REMARKS
CHARLOTTESVILL SUNNY     56  33  42 NW7       30.02F
CULPEPER*      PTSUNNY   57  34  41 NW7       30.04S
ORANGE*        PTSUNNY   57  36  44 NW6       30.05R
GORDONSVILLE*  FAIR      57  34  41 NW7       30.02S
WARRENTON*     CLOUDY    58  42  56 N8        30.03R

$$

VAZ055>057-302100-
NORTH AND CENTRAL PIEDMONT

CITY           SKY/WX    TMP DP  RH WIND       PRES   REMARKS
FREDERICKSBRG* PTSUNNY   61  36  40 NW8       30.01S
STAFFORD*      MOSUNNY   58  33  38 N9        30.06S

$$

NCZ024-NYZ072-PAZ021-071-VAZ022-071-302100-
OTHER REGIONAL OBSERVATIONS

CITY           SKY/WX    TMP DP  RH WIND       PRES   REMARKS
NEW YORK CITY  MOSUNNY   56  33  42 VRB3      29.99S
PHILADELPHIA   PTSUNNY   58  35  42 NW9       29.99F
PITTSBURGH     CLOUDY    48  36  63 W9        30.05F
ROANOKE        MOSUNNY   60  33  36 VRB3      30.02F
RICHMOND       MOSUNNY   63  36  36 N3        30.01S
RALEIGH        MOSUNNY   66  39  37 NE6       29.98F

$$

ANZ530>537-302100-
MARINE OBSERVATIONS

STATION/POSITION TIME  TEMP    WIND        PRES
                       AIR SEA DIR/SP/G
                 (UTC) (F)     (DEG/KT/KT) (MB)
THOMAS PT LIGHT  2000   57 62  350/ 11/ 12 1017.1F
BALT KEY BRIDGE  2000   56     310/ 13/ 14 1016.1R
COVE POINT       2000   56      40/  7/  9 1016.0S
LEWISETTA        2000   60 63  350/  7/ 11 1015.6S
SOLOMONS ISLAND  2000      63                N/A
PINEY POINT      2000          310/ 11/ 12   N/A

$$




USA.gov is the U.S. government's official web portal to all federal, state and local government web resources and services.